DateTimeUTC,F1_A11,F1_S11,BsB_S11,BsG_S11,BsR_S11,BbsB_S11,BbsG_S11,BbsR_S11,BaB_A11,BaG_A11,BaR_A11,T_S11,U_S11,P_S11,T1_A11
2020-08-04T00:00:00Z,00000380,20000600,,,,,,,,,,23.9,03.0,0666.1,30.9
2020-08-04T00:01:00Z,00000380,20000600,,,,,,,,,,23.9,03.0,0666.1,30.9
2020-08-04T00:02:00Z,00000380,20000600,,,,,,,,,,23.9,02.9,0666.1,30.9
2020-08-04T00:03:00Z,00000380,60000600,,,,,,,,,,23.9,02.8,0666.1,31.0
2020-08-04T00:04:00Z,00000380,40000600,0000.63,0000.06,0000.19,-000.55,0000.14,-000.33,-000.15,0000.02,-000.12,23.8,02.8,0667.0,30.9
2020-08-04T00:05:00Z,00000380,00000600,0000.80,-000.13,-000.04,-000.50,0000.26,-000.02,-000.05,0000.14,0000.03,23.7,02.8,0667.1,30.9
2020-08-04T00:06:00Z,00000380,00000600,0000.27,-000.28,0000.06,-000.12,0000.08,-000.06,0000.19,-000.19,-000.03,23.7,02.8,0667.1,30.9
2020-08-04T00:07:00Z,00000380,00000600,0000.12,0000.08,-000.16,-000.45,-000.16,0000.21,-000.12,0000.03,-000.13,23.7,02.7,0667.1,30.9
2020-08-04T00:08:00Z,00000380,00000600,-000.02,0000.02,-000.06,0000.33,0000.03,-000.24,-000.06,0000.02,0000.05,23.7,02.8,0667.1,30.9
2020-08-04T00:09:00Z,00000380,00000600,0000.23,0000.04,0000.48,0000.02,0000.20,0000.21,0000.00,-000.06,-000.13,23.6,02.7,0667.1,30.9
2020-08-04T00:10:00Z,00000380,00000600,0000.48,-000.25,-000.09,0000.07,0000.27,0000.22,0000.02,0000.02,0000.14,23.6,02.7,0667.1,30.9
2020-08-04T00:11:00Z,00000380,00010600,0001.75,0000.12,0000.27,0000.25,-000.42,-000.02,-000.16,-000.02,0000.10,23.6,02.6,0667.1,30.9
2020-08-04T00:12:00Z,00000380,00000600,0001.37,-000.12,0000.48,-000.12,-000.26,0000.29,-000.01,-000.14,-000.03,23.6,02.7,0667.1,30.9
2020-08-04T00:13:00Z,00000380,00000600,0000.30,-000.61,0000.54,-000.79,0000.30,0000.25,-000.01,-000.03,-000.19,23.6,02.6,0667.1,30.9
2020-08-04T00:14:00Z,00000380,00000600,0000.95,0000.15,0000.44,-000.82,-000.32,0000.42,-000.07,0000.10,0000.13,23.6,02.6,0667.1,30.9
2020-08-04T00:15:00Z,00000380,00000600,0000.53,0000.12,0000.24,0000.16,0000.32,0000.13,0000.08,0000.03,0000.06,23.6,02.6,0667.1,30.9
2020-08-04T00:16:00Z,00000380,00000600,0001.04,-000.27,-000.09,-000.44,0000.06,0000.00,0000.05,0000.02,-000.06,23.6,02.7,0667.1,30.9
2020-08-04T00:17:00Z,00000380,00000600,0000.13,-000.29,0000.48,0000.62,0000.24,0000.56,0000.07,0000.13,0000.11,23.6,02.7,0667.1,30.9
2020-08-04T00:18:00Z,00000380,00000600,0000.75,0000.12,0000.66,-000.42,-000.13,0000.53,-000.16,-000.15,-000.04,23.6,02.7,0667.1,30.9
2020-08-04T00:19:00Z,00000380,00000600,0000.25,0000.38,0000.20,-000.17,0000.27,0000.48,0000.07,0000.06,-000.02,23.6,02.7,0667.1,30.9
2020-08-04T00:20:00Z,00000380,00000600,0000.88,-000.27,-000.21,-000.44,-000.03,0000.32,-000.08,-000.11,-000.10,23.6,02.7,0667.2,30.9
2020-08-04T00:21:00Z,00000380,00000600,0001.11,0000.06,0000.60,-000.13,0000.35,0000.19,-000.14,0000.12,-000.02,23.6,02.7,0667.2,30.9
2020-08-04T00:22:00Z,00000380,00000600,0001.86,-000.01,0000.16,0000.46,0000.04,-000.13,0000.02,-000.14,-000.00,23.6,02.6,0667.2,30.9
2020-08-04T00:23:00Z,00000380,00000600,0001.02,-000.17,0000.20,0000.09,-000.25,0000.13,-000.08,-000.02,-000.13,23.6,02.6,0667.1,30.9
2020-08-04T00:24:00Z,00000380,00000600,0000.25,0000.21,0000.07,-000.13,0000.08,0000.03,-000.02,-000.10,-000.02,23.5,02.5,0667.2,30.9
2020-08-04T00:25:00Z,00000380,00000600,0001.92,-000.16,0000.53,0000.69,0000.01,0000.10,-000.12,0000.05,0000.02,23.5,02.5,0667.2,30.9
2020-08-04T00:26:00Z,00000380,00000600,0001.57,-000.45,0000.63,-000.09,0000.04,0000.33,-000.06,-000.14,-000.05,23.5,02.5,0667.1,31.0
2020-08-04T00:27:00Z,00000380,00000600,-000.04,0000.39,-000.10,0000.02,0000.03,0000.07,0000.11,0000.11,0000.01,23.5,02.4,0667.2,30.9
2020-08-04T00:28:00Z,00000380,00000600,0000.07,0000.04,0000.28,0000.30,0000.10,0000.27,-000.12,0000.02,0000.05,23.5,02.5,0667.2,30.9
2020-08-04T00:29:00Z,00000380,00000600,0000.61,0000.16,0000.44,0000.17,0000.34,0000.35,-000.03,-000.17,0000.03,23.5,02.4,0667.2,30.9
2020-08-04T00:30:00Z,00000380,00000600,0000.80,0000.37,0000.05,0000.03,0000.26,0000.55,-000.07,-000.05,-000.09,23.5,02.4,0667.2,30.9
2020-08-04T00:31:00Z,00000380,00000600,0000.33,0000.32,0000.68,0000.75,0000.53,0000.37,-000.01,0000.03,0000.00,23.5,02.4,0667.2,30.9
2020-08-04T00:32:00Z,00000380,00000600,0000.61,-000.35,0001.07,0000.34,0000.32,0000.50,-000.11,-000.16,-000.10,23.5,02.4,0667.2,30.9
2020-08-04T00:33:00Z,00000380,00000600,0000.51,-000.17,0000.02,-000.35,0000.34,-000.03,0000.03,0000.15,-000.11,23.5,02.4,0667.2,30.9
2020-08-04T00:34:00Z,00000380,00000600,0000.66,-000.10,0000.29,-000.83,0000.11,0000.03,-000.13,-000.14,0000.20,23.5,02.4,0667.2,30.9
2020-08-04T00:35:00Z,00000380,00000600,0001.30,-000.43,0000.53,0000.62,-000.20,-000.16,0000.13,0000.07,-000.18,23.4,02.3,0667.2,30.9
2020-08-04T00:36:00Z,00000380,00000600,0001.05,-000.18,-000.13,-000.36,-000.09,0000.45,-000.02,0000.06,0000.03,23.4,02.3,0667.2,30.9
2020-08-04T00:37:00Z,00000380,00000600,0000.86,-000.41,0000.04,-000.88,0000.10,0000.41,-000.07,-000.13,0000.22,23.4,02.3,0667.2,30.9
2020-08-04T00:38:00Z,00000380,00000600,0000.33,0000.14,0000.17,0000.13,0000.40,0000.15,0000.02,-000.06,-000.19,23.4,02.3,0667.2,30.9
2020-08-04T00:39:00Z,00000380,00000600,0001.02,-000.10,0000.23,-000.93,-000.31,0000.08,0000.05,0000.03,0000.06,23.4,02.3,0667.2,30.9
2020-08-04T00:40:00Z,00000380,00000600,0000.04,0000.32,-000.02,-000.88,0000.14,-000.14,-000.13,0000.03,-000.08,23.4,02.3,0667.2,30.9
2020-08-04T00:41:00Z,00000380,00000600,0000.76,-000.44,0000.09,-000.33,-000.16,0000.40,-000.03,-000.10,0000.04,23.4,02.3,0667.2,30.9
2020-08-04T00:42:00Z,00000380,00000600,0000.78,0000.10,-000.10,-000.03,0000.37,-000.57,-000.13,0000.13,-000.07,23.4,02.3,0667.2,30.9
2020-08-04T00:43:00Z,00000380,00000600,0000.30,-000.14,-000.05,-000.67,0000.06,-000.21,0000.23,-000.10,-000.04,23.4,02.3,0667.2,30.9
2020-08-04T00:44:00Z,00000380,00000600,0000.12,0000.05,-000.08,-000.48,0000.14,-000.13,-000.03,0000.22,0000.20,23.4,02.3,0667.2,30.9
2020-08-04T00:45:00Z,00000380,00000600,0000.17,0000.03,0000.27,-000.38,-000.07,0000.14,0000.12,-000.05,0000.04,23.4,02.4,0667.2,30.9
2020-08-04T00:46:00Z,00000380,00000600,0001.13,-000.14,0000.65,-000.44,0000.24,-000.11,0000.01,0000.14,0000.04,23.4,02.4,0667.2,30.9
2020-08-04T00:47:00Z,00000380,00000600,-000.10,0000.08,-000.09,-000.35,0000.11,-000.12,0000.11,0000.09,0000.10,23.4,02.4,0667.2,30.9
2020-08-04T00:48:00Z,00000380,00000600,0000.47,0000.10,0000.40,-000.18,0000.12,0000.03,0000.08,-000.03,0000.05,23.5,02.4,0667.2,31.0
2020-08-04T00:49:00Z,00000380,00000600,0000.61,-000.09,-000.21,-000.58,0000.19,-000.31,-000.10,0000.13,0000.00,23.5,02.6,0667.2,31.0
2020-08-04T00:50:00Z,00000380,00000600,0000.00,0000.03,0000.67,-000.69,0000.02,0000.19,-000.03,-000.05,-000.09,23.5,02.5,0667.2,31.0
2020-08-04T00:51:00Z,00000380,00000600,0001.02,-000.24,0000.18,-000.28,0000.01,0000.21,0000.16,-000.10,0000.09,23.5,02.5,0667.2,31.0
2020-08-04T00:52:00Z,00000380,00000600,0001.75,-000.08,0000.68,0000.15,0000.02,0000.27,-000.11,0000.10,-000.14,23.5,02.5,0667.2,31.0
2020-08-04T00:53:00Z,00000380,00000600,0000.60,-000.47,0000.23,-000.23,0000.66,-000.33,-000.01,-000.08,0000.08,23.5,02.6,0667.2,31.0
2020-08-04T00:54:00Z,00000380,00000600,-000.26,-000.05,0000.07,0000.25,0000.38,0000.38,0000.07,0000.00,-000.09,23.4,02.6,0667.2,30.9
2020-08-04T00:55:00Z,00000380,00000600,0001.05,-000.25,0000.52,0000.11,0000.31,0000.20,-000.07,-000.10,0000.05,23.4,02.5,0667.2,30.9
2020-08-04T00:56:00Z,00000380,00000600,0000.47,0000.16,0000.08,-000.25,0000.08,-000.15,-000.08,0000.04,-000.09,23.4,02.6,0667.2,30.9
2020-08-04T00:57:00Z,00000380,40000600,,,,,,,,,,23.5,02.8,0667.1,30.9
2020-08-04T00:58:00Z,00000380,60000600,,,,,,,,,,23.6,02.4,0666.2,30.9
2020-08-04T00:59:00Z,00000380,20000600,,,,,,,,,,23.7,02.4,0666.2,30.9
2020-08-04T01:00:00Z,00000380,20000600,,,,,,,,,,23.7,02.4,0666.2,30.9
2020-08-04T01:01:00Z,00000380,20000600,,,,,,,,,,23.7,02.2,0666.2,30.9
2020-08-04T01:02:00Z,00000380,20000600,,,,,,,,,,23.7,02.2,0666.2,31.0
2020-08-04T01:03:00Z,00000380,60000600,,,,,,,,,,23.7,02.2,0666.2,31.0
2020-08-04T01:04:00Z,00000380,40000600,-000.19,-000.06,-000.20,-000.60,0000.33,-000.16,0000.04,0000.06,0000.03,23.6,02.4,0667.1,31.0
2020-08-04T01:05:00Z,00000380,00000600,0000.85,0000.58,0000.30,0000.18,0000.11,0000.12,0000.03,0000.05,0000.01,23.5,02.5,0667.2,30.9
2020-08-04T01:06:00Z,00000380,00000600,-000.38,-000.09,-000.37,-000.09,-000.04,-000.08,-000.02,-000.02,0000.15,23.5,02.4,0667.2,30.9
2020-08-04T01:07:00Z,00000380,00000600,-000.60,-000.08,-000.27,0000.18,-000.05,-000.24,0000.13,0000.03,-000.02,23.5,02.5,0667.2,30.9
2020-08-04T01:08:00Z,00000380,00000600,0000.77,0000.55,0000.15,-000.06,0000.44,-000.11,-000.11,-000.07,-000.13,23.5,02.5,0667.2,30.9
2020-08-04T01:09:00Z,00000380,00000600,0001.02,0000.25,0000.19,-000.45,0000.16,0000.11,-000.05,-000.03,0000.12,23.5,02.6,0667.2,30.9
2020-08-04T01:10:00Z,00000380,00000600,0000.67,0000.12,0000.04,-000.34,0000.12,0000.18,0000.12,-000.01,0000.04,23.4,02.6,0667.2,30.9
2020-08-04T01:11:00Z,00000380,00000600,0000.33,0000.57,0000.14,0000.02,0000.21,0000.01,0000.06,0000.03,-000.13,23.4,02.5,0667.2,30.9
2020-08-04T01:12:00Z,00000380,00000600,0000.42,0000.22,0000.02,-000.92,0000.35,-000.10,-000.13,0000.24,0000.03,23.4,02.6,0667.2,30.9
2020-08-04T01:13:00Z,00000380,00000600,0001.00,0000.13,-000.44,0000.27,0000.02,-000.18,0000.05,-000.13,-000.02,23.4,02.6,0667.2,30.9
2020-08-04T01:14:00Z,00000380,00000600,0000.86,0000.28,0000.15,-000.32,0000.19,-000.44,0000.18,0000.09,0000.23,23.4,02.6,0667.2,30.9
2020-08-04T01:15:00Z,00000380,00000600,0001.05,0000.52,-000.10,-000.15,0000.27,-000.08,-000.03,0000.07,0000.06,23.4,02.7,0667.2,30.9
2020-08-04T01:16:00Z,00000380,00000600,0001.44,0000.21,-000.01,-000.09,-000.01,-000.18,0000.06,-000.06,-000.11,23.4,02.6,0667.2,30.9
2020-08-04T01:17:00Z,00000380,00000600,0000.90,-000.15,-000.11,0000.79,0000.07,-000.32,0000.01,-000.08,0000.09,23.4,02.6,0667.2,30.9
2020-08-04T01:18:00Z,00000380,00000600,0000.89,0000.21,0000.08,0000.54,-000.07,0000.16,-000.06,0000.08,0000.03,23.4,02.6,0667.2,30.9
2020-08-04T01:19:00Z,00000380,00000600,0000.74,0000.09,-000.04,0000.90,0000.32,-000.04,0000.04,-000.05,-000.09,23.4,02.6,0667.2,30.9
2020-08-04T01:20:00Z,00000380,00000600,0001.39,0000.37,0000.00,-000.07,-000.03,0000.01,-000.04,0000.02,0000.02,23.4,02.7,0667.2,30.9
2020-08-04T01:21:00Z,00000380,00000600,-000.03,0000.12,-000.09,-000.42,0000.03,-000.09,0000.06,0000.04,-000.16,23.4,02.7,0667.2,30.9
2020-08-04T01:22:00Z,00000380,00000600,0000.90,0000.39,-000.16,-000.42,0000.01,0000.28,-000.02,0000.00,0000.05,23.4,02.7,0667.2,30.9
2020-08-04T01:23:00Z,00000380,00000600,0000.23,0000.39,0000.21,-000.01,0000.09,0000.11,0000.02,-000.23,0000.11,23.4,02.7,0667.2,30.9
2020-08-04T01:24:00Z,00000380,00000600,0001.65,0000.22,0000.03,-000.07,0000.16,0000.32,-000.20,0000.00,-000.15,23.4,02.7,0667.2,30.9
2020-08-04T01:25:00Z,00000380,00000600,0000.54,0000.47,0000.17,-000.53,0000.30,0000.15,0000.05,0000.18,0000.14,23.3,02.7,0667.2,30.9
2020-08-04T01:26:00Z,00000380,00000600,0001.47,-000.05,-000.21,-000.54,0000.20,-000.02,0000.12,-000.04,-000.10,23.3,02.7,0667.2,30.9
2020-08-04T01:27:00Z,00000380,00000600,0001.09,0000.18,0000.19,0000.03,0000.45,0000.26,-000.04,0000.07,0000.16,23.3,02.7,0667.2,30.9
2020-08-04T01:28:00Z,00000380,00000600,0000.98,0000.14,0000.37,-000.56,-000.11,0000.08,-000.09,0000.24,-000.03,23.3,02.7,0667.2,30.9
2020-08-04T01:29:00Z,00000380,00000600,0000.90,0000.36,-000.07,0000.02,0000.22,-000.01,-000.01,-000.16,0000.05,23.3,02.7,0667.2,30.9
2020-08-04T01:30:00Z,00000380,00000600,0000.90,0000.63,-000.20,-000.05,0000.15,0000.25,0000.23,-000.01,0000.06,23.3,02.7,0667.2,30.9
2020-08-04T01:31:00Z,00000380,00000600,0002.09,0000.20,-000.25,-000.19,0000.35,-000.46,0000.12,0000.42,0000.20,23.3,02.7,0667.2,30.9
2020-08-04T01:32:00Z,00000380,00000600,0001.07,0000.14,-000.41,-000.20,0000.23,0000.24,-000.03,-000.16,-000.09,23.4,02.7,0667.2,30.9
2020-08-04T01:33:00Z,00000380,00000600,0000.64,0000.08,-000.08,-000.54,0000.08,0000.14,0000.07,-000.04,0000.01,23.4,02.8,0667.2,30.9
2020-08-04T01:34:00Z,00000380,00000600,0001.38,0000.61,0000.22,-000.09,0000.13,0000.08,-000.08,-000.10,-000.08,23.4,02.8,0667.2,30.9
2020-08-04T01:35:00Z,00000380,00000600,0001.78,0000.50,0000.27,0000.54,0000.22,0000.12,-000.03,0000.14,0000.09,23.4,02.9,0667.2,30.9
2020-08-04T01:36:00Z,00000380,00000600,0001.10,0000.56,-000.30,-000.40,0000.13,0000.27,-000.04,-000.02,-000.02,23.4,02.8,0667.2,30.9
2020-08-04T01:37:00Z,00000380,00000600,0000.50,-000.07,-000.13,-000.90,0000.09,-000.37,-000.10,-000.08,0000.02,23.3,02.8,0667.2,30.9
2020-08-04T01:38:00Z,00000380,00000600,0000.95,0000.27,0000.05,-001.20,0000.03,0000.22,0000.08,-000.01,-000.03,23.3,02.8,0667.1,30.9
2020-08-04T01:39:00Z,00000380,00000600,0000.75,0000.07,-000.30,-000.46,-000.13,-000.32,-000.06,0000.05,0000.01,23.3,02.8,0667.1,30.9
2020-08-04T01:40:00Z,00000380,00000600,0000.57,0000.20,0000.20,0000.03,0000.46,0000.21,0000.02,-000.15,-000.04,23.3,02.8,0667.1,30.9
2020-08-04T01:41:00Z,00000380,00000600,0000.68,0000.19,0000.11,0000.41,0000.52,0000.33,-000.14,0000.06,0000.02,23.3,02.8,0667.1,30.9
2020-08-04T01:42:00Z,00000380,00000600,-000.50,-000.02,0000.14,0000.54,0000.03,0000.52,0000.19,0000.16,-000.04,23.3,02.8,0667.2,30.9
2020-08-04T01:43:00Z,00000380,00000600,0000.57,0000.19,-000.38,0000.69,0000.27,0000.21,-000.12,-000.18,0000.13,23.3,02.8,0667.1,30.9
2020-08-04T01:44:00Z,00000380,00000600,0001.15,0000.39,-000.28,0000.52,0000.12,-000.10,0000.11,0000.26,-000.06,23.3,02.9,0667.1,30.9
2020-08-04T01:45:00Z,00000380,00000600,0001.18,0000.12,0000.09,0001.05,0000.45,-000.17,0000.23,-000.00,0000.23,23.3,02.9,0667.1,30.9
2020-08-04T01:46:00Z,00000380,00000600,0000.75,0000.50,-000.14,0000.58,-000.07,0000.11,0000.14,0000.17,0000.01,23.3,02.9,0667.1,30.9
2020-08-04T01:47:00Z,00000380,00000600,0001.43,0000.14,0000.01,-001.68,-000.14,0000.12,-000.13,-000.10,-000.04,23.4,02.9,0667.1,30.9
2020-08-04T01:48:00Z,00000380,00000600,0001.03,-000.03,0000.23,-000.79,0000.27,-000.02,0000.02,0000.12,0000.11,23.4,03.0,0667.0,30.9
2020-08-04T01:49:00Z,00000380,00000600,0000.58,-000.09,0000.01,0000.26,-000.01,0000.09,-000.04,-000.03,0000.01,23.4,03.0,0667.0,30.9
2020-08-04T01:50:00Z,00000380,00000600,-000.24,0000.47,0000.75,-000.13,-000.02,0000.50,0000.03,-000.11,-000.04,23.3,03.0,0667.0,30.9
2020-08-04T01:51:00Z,00000380,00000600,0001.86,0000.38,-000.02,0000.39,0000.16,-000.01,0000.09,0000.07,0000.13,23.3,03.0,0667.0,30.9
2020-08-04T01:52:00Z,00000380,00000600,0000.60,0000.01,-000.13,0000.09,0000.10,0000.12,-000.17,0000.07,-000.10,23.3,03.0,0667.0,30.9
2020-08-04T01:53:00Z,00000380,00000600,0000.45,-000.33,0000.10,0000.93,0000.09,0000.11,0000.18,-000.01,0000.10,23.3,03.1,0667.0,30.9
2020-08-04T01:54:00Z,00000380,00000600,0000.45,0000.21,-000.03,0000.40,0000.29,0000.43,0000.11,0000.11,-000.04,23.3,03.1,0667.0,30.9
2020-08-04T01:55:00Z,00000380,00000600,0000.79,-000.00,0000.03,-000.43,0000.28,0000.54,-000.02,0000.02,-000.03,23.3,03.1,0667.0,30.9
2020-08-04T01:56:00Z,00000380,00000600,0000.77,0000.69,-000.16,0000.02,-000.18,-000.17,-000.10,-000.11,-000.08,23.3,03.2,0667.0,30.9
2020-08-04T01:57:00Z,00000380,40000600,,,,,,,,,,23.3,03.2,0667.0,30.9
2020-08-04T01:58:00Z,00000380,60000600,,,,,,,,,,23.4,03.0,0665.9,30.9
2020-08-04T01:59:00Z,00000380,20000600,,,,,,,,,,23.5,03.0,0665.9,30.9
2020-08-04T02:00:00Z,00000380,20000600,,,,,,,,,,23.5,03.0,0665.9,30.9
2020-08-04T02:01:00Z,00000380,20000600,,,,,,,,,,23.5,03.0,0665.9,30.9
2020-08-04T02:02:00Z,00000380,20000600,,,,,,,,,,23.5,03.0,0665.9,30.9
2020-08-04T02:03:00Z,00000380,60000600,,,,,,,,,,23.6,03.0,0665.9,30.9
2020-08-04T02:04:00Z,00000380,40000600,0001.18,0000.36,0000.44,-000.12,0000.12,0000.37,-000.01,-000.17,-000.10,23.5,03.1,0666.8,30.9
2020-08-04T02:05:00Z,00000380,00000600,0000.69,0000.25,-000.11,-000.11,0000.23,0000.28,-000.09,-000.04,0000.05,23.4,03.1,0666.9,30.9
2020-08-04T02:06:00Z,00000380,00000600,0000.95,0000.41,0000.49,0000.74,0000.35,0000.31,-000.19,0000.04,0000.02,23.4,03.1,0666.9,30.9
2020-08-04T02:07:00Z,00000380,00000600,0000.15,0000.58,0000.73,0000.41,0000.32,0000.27,0000.05,-000.03,-000.13,23.3,03.1,0666.9,30.9
2020-08-04T02:08:00Z,00000380,00000600,0000.64,0000.37,0000.10,0000.03,-000.10,0000.59,-000.05,-000.20,0000.05,23.3,03.1,0666.9,30.9
2020-08-04T02:09:00Z,00000380,00000600,0000.64,0000.34,0000.10,0000.85,0000.17,0000.11,0000.09,0000.15,-000.07,23.3,03.1,0666.9,30.9
2020-08-04T02:10:00Z,00000380,00000600,0000.76,0000.20,0000.35,0001.25,-000.12,-000.04,-000.08,0000.04,-000.02,23.3,03.1,0666.9,30.9
2020-08-04T02:11:00Z,00000380,00000600,0000.54,-000.09,0000.15,0000.27,0000.13,0000.27,0000.04,-000.00,0000.10,23.3,03.1,0666.9,30.9
2020-08-04T02:12:00Z,00000380,00000600,0000.72,0000.01,0000.09,0000.69,0000.13,0000.14,-000.05,-000.07,-000.23,23.2,03.1,0666.9,30.9
2020-08-04T02:13:00Z,00000380,00000600,0000.78,-000.08,0000.03,-000.08,0000.45,0000.13,-000.00,0000.13,0000.18,23.2,03.1,0666.8,30.9
2020-08-04T02:14:00Z,00000380,00000600,-000.06,-000.17,-000.00,0000.61,-000.07,0000.39,0000.16,-000.03,-000.02,23.2,03.2,0666.8,30.9
2020-08-04T02:15:00Z,00000380,00000600,0000.53,-000.02,0000.09,0001.16,0000.32,0000.31,0000.02,0000.11,0000.24,23.2,03.2,0666.8,30.9
2020-08-04T02:16:00Z,00000380,00000600,0000.41,-000.33,0000.04,0000.42,0000.42,0000.18,-000.08,0000.10,-000.08,23.3,03.1,0666.8,30.9
2020-08-04T02:17:00Z,00000380,00000600,0000.94,0000.22,0000.33,0000.08,0000.37,-000.03,0000.11,0000.01,0000.09,23.3,03.1,0666.8,30.9
2020-08-04T02:18:00Z,00000380,00000600,0000.66,0000.44,0000.29,0000.31,0000.03,0000.60,-000.09,0000.07,-000.07,23.3,03.2,0666.8,30.9
2020-08-04T02:19:00Z,00000380,00000600,0000.35,0000.16,0000.16,0000.96,0000.07,0000.68,0000.05,-000.17,-000.00,23.3,03.2,0666.8,30.9
2020-08-04T02:20:00Z,00000380,00000600,0000.74,0000.06,0000.22,0000.34,0000.22,0000.52,0000.00,0000.14,0000.06,23.3,03.2,0666.8,30.9
2020-08-04T02:21:00Z,00000380,00000600,0000.37,-000.16,0000.31,0001.11,0000.36,0000.09,0000.04,-000.20,0000.04,23.3,03.2,0666.8,30.9
2020-08-04T02:22:00Z,00000380,00000600,0000.78,-000.15,0000.14,0000.97,0000.39,0000.26,-000.07,0000.02,-000.05,23.3,03.2,0666.8,30.9
2020-08-04T02:23:00Z,00000380,00010600,0000.06,0000.32,0000.51,-000.65,0000.03,0000.11,-000.06,-000.00,-000.01,23.3,03.2,0666.7,30.9
2020-08-04T02:24:00Z,00000380,00000600,0000.80,0000.17,0000.89,0000.35,0000.21,0000.05,-000.01,0000.07,0000.02,23.2,03.2,0666.7,30.9
2020-08-04T02:25:00Z,00000380,00000600,0001.28,0000.63,0000.14,0000.92,0000.28,0000.46,0000.02,-000.01,0000.02,23.2,03.2,0666.7,30.9
2020-08-04T02:26:00Z,00000380,00000600,0000.71,-000.12,0000.50,0000.55,-000.13,0000.29,0000.09,-000.04,-000.00,23.2,03.2,0666.7,30.9
2020-08-04T02:27:00Z,00000380,00000600,0000.30,0000.29,-000.07,0000.66,-000.22,0000.50,-000.02,0000.09,-000.03,23.2,03.2,0666.7,30.9
2020-08-04T02:28:00Z,00000380,00000600,0000.45,-000.04,0000.28,0000.82,0000.48,0000.26,0000.00,-000.04,-000.04,23.2,03.2,0666.7,30.9
2020-08-04T02:29:00Z,00000380,00000600,0000.38,-000.23,0000.74,-000.83,0000.29,0000.58,0000.02,-000.02,0000.21,23.2,03.1,0666.7,30.9
2020-08-04T02:30:00Z,00000380,00000600,0000.09,0000.11,0000.73,0000.41,0000.04,0000.38,0000.08,0000.26,0000.04,23.2,03.2,0666.7,30.9
2020-08-04T02:31:00Z,00000380,00000600,0000.63,0000.17,0000.44,0000.92,0000.37,0000.33,-000.02,0000.03,-000.01,23.2,03.2,0666.6,30.9
2020-08-04T02:32:00Z,00000380,00000600,0000.25,0000.17,0000.51,0001.20,-000.08,0000.14,-000.05,-000.11,0000.01,23.2,03.1,0666.6,30.9
2020-08-04T02:33:00Z,00000380,00000600,0000.04,0000.46,0000.06,0000.87,-000.24,0000.06,-000.02,-000.03,-000.07,23.3,03.2,0666.6,30.9
2020-08-04T02:34:00Z,00000380,00000600,0000.49,0000.14,0000.32,0000.57,0000.13,0000.39,0000.06,-000.03,-000.01,23.2,03.2,0666.6,30.9
2020-08-04T02:35:00Z,00000380,00000600,0001.18,0000.39,0001.12,0000.28,0000.07,0000.47,-000.08,-000.01,0000.03,23.2,03.2,0666.6,30.9
2020-08-04T02:36:00Z,00000380,00000600,0000.46,0000.55,0000.51,-000.27,0000.54,0000.85,0000.01,0000.13,-000.03,23.2,03.2,0666.7,30.9
2020-08-04T02:37:00Z,00000380,00000600,0000.13,0000.18,0000.67,0000.03,0000.01,0000.05,0000.12,-000.02,-000.04,23.2,03.2,0666.7,30.9
2020-08-04T02:38:00Z,00000380,00000600,0000.19,0000.13,0000.60,0001.16,0000.22,0000.50,0000.03,0000.07,0000.06,23.2,03.2,0666.7,30.9
2020-08-04T02:39:00Z,00000380,00000600,0000.48,-000.09,0000.51,0000.65,0000.14,0000.20,-000.04,-000.11,-000.19,23.2,03.2,0666.6,30.9
2020-08-04T02:40:00Z,00000380,00000600,0000.26,-000.12,0000.47,0000.43,-000.02,0000.46,0000.04,-000.09,0000.12,23.2,03.3,0666.6,30.9
2020-08-04T02:41:00Z,00000380,00000600,0001.07,0000.18,-000.09,0000.43,0000.18,0000.11,-000.06,0000.14,0000.03,23.2,03.2,0666.6,30.9
2020-08-04T02:42:00Z,00000380,00000600,0001.14,0000.32,-000.03,0000.33,-000.10,0000.48,-000.01,0000.01,-000.12,23.1,03.2,0666.6,30.9
2020-08-04T02:43:00Z,00000380,00000600,0000.81,0000.73,0000.19,0000.91,0000.43,0000.41,0000.15,0000.01,0000.13,23.1,03.2,0666.6,30.9
2020-08-04T02:44:00Z,00000380,00000600,0001.63,0000.31,0000.16,0000.82,-000.05,0000.12,-000.05,0000.13,0000.02,23.1,03.2,0666.6,30.9
2020-08-04T02:45:00Z,00000380,00000600,0000.07,0000.36,0000.45,0001.09,0000.08,0000.11,0000.10,0000.02,0000.14,23.1,03.2,0666.6,30.9
2020-08-04T02:46:00Z,00000380,00000600,0000.78,0000.21,0000.39,0000.49,0000.25,0000.17,-000.09,-000.10,-000.04,23.2,03.2,0666.6,30.9
2020-08-04T02:47:00Z,00000380,00000600,0000.84,0000.33,0000.01,0000.26,0000.16,0000.13,0000.06,0000.16,0000.07,23.2,03.2,0666.5,30.9
2020-08-04T02:48:00Z,00000380,00000600,0000.29,0000.56,0000.56,0000.53,0000.12,0000.35,-000.04,-000.03,-000.12,23.2,03.3,0666.5,30.9
2020-08-04T02:49:00Z,00000380,00000600,0000.08,-000.14,0000.18,-000.01,0000.33,0000.52,-000.05,-000.04,-000.00,23.2,03.2,0666.5,30.9
2020-08-04T02:50:00Z,00000380,00000600,0000.60,0000.68,-000.09,0000.12,0000.17,0000.67,0000.05,0000.10,0000.05,23.2,03.2,0666.5,30.9
2020-08-04T02:51:00Z,00000380,00000600,0000.14,0000.34,0000.55,0000.85,0000.17,0000.82,-000.04,-000.11,0000.04,23.2,03.3,0666.5,30.9
2020-08-04T02:52:00Z,00000380,00000600,0000.78,0000.09,0000.29,0000.14,0000.50,0000.61,0000.19,-000.02,0000.10,23.2,03.3,0666.5,30.9
2020-08-04T02:53:00Z,00000380,00000600,0000.74,0000.18,0000.49,0000.53,0000.15,0000.36,-000.18,0000.00,-000.13,23.2,03.3,0666.5,30.9
2020-08-04T02:54:00Z,00000380,00000600,-000.48,0000.50,0000.50,0000.23,0000.54,0000.44,0000.05,-000.02,0000.04,23.1,03.2,0666.5,30.9
2020-08-04T02:55:00Z,00000380,00000600,0000.43,-000.16,0000.39,0000.18,0000.06,0000.31,0000.06,-000.07,-000.00,23.1,03.3,0666.5,30.9
2020-08-04T02:56:00Z,00000380,00000600,0000.89,0000.50,0000.53,0000.24,-000.45,0000.46,-000.16,-000.08,-000.07,23.1,03.3,0666.5,30.9
2020-08-04T02:57:00Z,00000380,40000600,,,,,,,,,,23.1,03.3,0666.5,30.9
2020-08-04T02:58:00Z,00000380,60000600,,,,,,,,,,23.2,03.2,0665.5,30.9
2020-08-04T02:59:00Z,00000380,20000600,,,,,,,,,,23.3,03.2,0665.5,30.9
2020-08-04T03:00:00Z,00000380,20000600,,,,,,,,,,23.3,03.2,0665.5,30.9
2020-08-04T03:01:00Z,00000380,20000600,,,,,,,,,,23.3,03.1,0665.5,30.9
2020-08-04T03:02:00Z,00000380,20000600,,,,,,,,,,23.4,03.0,0665.5,30.9
2020-08-04T03:03:00Z,00000380,60000600,,,,,,,,,,23.4,03.0,0665.5,30.9
2020-08-04T03:04:00Z,00000380,40000600,0000.89,-000.39,0000.71,-000.11,-000.68,0000.49,-000.22,-000.09,-000.09,23.3,03.1,0666.4,30.9
2020-08-04T03:05:00Z,00000380,00000600,-001.21,0000.29,0000.10,0000.42,0000.18,-000.20,-000.01,0000.03,0000.02,23.2,03.1,0666.5,30.9
2020-08-04T03:06:00Z,00000380,00000600,0001.53,0000.11,0000.37,0000.10,0000.04,0000.23,0000.03,-000.10,0000.03,23.2,03.1,0666.5,30.9
2020-08-04T03:07:00Z,00000380,00000600,0000.52,-000.15,0000.19,0000.61,0000.27,0000.07,-000.11,-000.03,-000.15,23.2,03.1,0666.5,30.9
2020-08-04T03:08:00Z,00000380,00000600,-001.29,0000.59,0000.20,-000.03,0000.08,-000.07,0000.03,-000.02,-000.08,23.2,03.1,0666.5,30.9
2020-08-04T03:09:00Z,00000380,00000600,0000.16,-000.02,0000.73,0000.01,-000.08,-000.03,-000.04,-000.09,0000.19,23.2,03.1,0666.5,30.9
2020-08-04T03:10:00Z,00000380,00000600,-000.78,-000.38,0000.25,0000.55,-000.11,-000.01,-000.04,0000.08,-000.23,23.2,03.1,0666.5,30.9